Find Essaim E12

NORAD ID: 28497 Int'l Des: 2004-049 Owner: CNES/DGA Country: F operational
LEOCIRCULARRETROGRADE

当前视图

正在加载3D地球...

关于 Essaim E12

正在加载描述...

即将过境

Passes for default location (London). Set your location on the main map for personalized predictions.

高度历史

Loading altitude history...

两行轨道根数

1 28497U 04049F 26150.66529816 .00001572 00000-0 17745-3 0 9996
2 28497 98.2553 37.2383 0001757 56.0889 304.0494 14.88078731156852
Epoch: May 30, 2026 • Age: 12 hours

当前状态

高度 619.8 km
速度 7.55 km/s
星下点 -38.53°S, 101.16°W
发射日期 Dec 18, 2004
运行时间 21.4 years
类型 other

技术详情

分类 Payload
质量 119.00 kg
干质量 114.00 kg
总质量 119.00 kg
长度 0.60 m
直径 0.60 m
跨度 1.00 m
形状 Box + Pan
制造商 EADSB
平台类型 Myriade
阶段状态 In Orbit
所有者/国家 CNES/DGA/F

Most Searched